Weather reports worldwide

Advertisment
Treviso/S. Angelo, Italy (16099): temperature & dewpoint: 09.12.2018 07:00:00 - 15.12.2018 07:00:00 (CET)Treviso/S. Angelo, Italy (16099): wind speed: 09.12.2018 07:00:00 - 15.12.2018 07:00:00 (CET)Treviso/S. Angelo, Italy (16099): wind direction: 09.12.2018 07:00:00 - 15.12.2018 07:00:00 (CET)Treviso/S. Angelo, Italy (16099): reduced air pressure: 09.12.2018 07:00:00 - 15.12.2018 07:00:00 (CET)Treviso/S. Angelo, Italy (16099): visibility: 09.12.2018 07:00:00 - 15.12.2018 07:00:00 (CET)Treviso/S. Angelo, Italy (16099): precipitation: 09.12.2018 07:00:00 - 15.12.2018 07:00:00 (CET)
Date & Time tt [°C] td [°C] ff [km/h] ff [kn] dd ppp [hPa] vv [km] rr [mm]
15.12.2018 07:00:00 - - - - - - - -
15.12.2018 06:00:00 - - - - - - - -
15.12.2018 05:00:00 - - - - - - - -
15.12.2018 04:00:00 -2,9 -5,1 0 0 N 1019,2 - 0,0
15.12.2018 03:00:00 - - - - - - - -
15.12.2018 02:00:00 - - - - - - - -
15.12.2018 01:00:00 -1,5 -5,1 2 1 NNW 1018,6 - -
15.12.2018 00:00:00 - - - - - - - -
14.12.2018 23:00:00 - - - - - - - -
14.12.2018 22:00:00 2,4 -5,1 8 4 NNE 1018,7 - 0,0
14.12.2018 21:00:00 - - - - - - - -
14.12.2018 20:00:00 - - - - - - - -
14.12.2018 19:00:00 2,6 -4,9 5 3 N 1017,7 - -
14.12.2018 18:00:00 - - - - - - - -
14.12.2018 17:00:00 - - - - - - - -
14.12.2018 16:00:00 6,0 -5,0 15 8 NE 1016,3 - 0,0
14.12.2018 15:00:00 - - - - - - - -
14.12.2018 14:00:00 - - - - - - - -
14.12.2018 13:00:00 7,2 -3,2 22 12 ENE 1016,1 10 -
14.12.2018 12:00:00 - - - - - - - -
14.12.2018 11:00:00 - - - - - - - -
14.12.2018 10:00:00 4,5 -3,3 8 4 N 1016,8 10 0,0
14.12.2018 09:00:00 - - - - - - - -
14.12.2018 08:00:00 - - - - - - - -
14.12.2018 07:00:00 1,6 -4,0 8 4 N 1015,8 - -
14.12.2018 06:00:00 - - - - - - - -
14.12.2018 05:00:00 - - - - - - - -
14.12.2018 04:00:00 2,5 -3,5 9 5 N 1015,5 - 0,0
14.12.2018 03:00:00 - - - - - - - -
14.12.2018 02:00:00 - - - - - - - -
14.12.2018 01:00:00 2,4 -3,6 5 3 N 1015,9 - -
14.12.2018 00:00:00 - - - - - - - -
13.12.2018 23:00:00 - - - - - - - -
13.12.2018 22:00:00 1,7 -2,9 5 3 N 1016,3 30 0,0
13.12.2018 21:00:00 - - - - - - - -
13.12.2018 20:00:00 - - - - - - - -
13.12.2018 19:00:00 4,0 -1,8 11 6 NE 1016,2 10 -
13.12.2018 18:00:00 - - - - - - - -
13.12.2018 17:00:00 - - - - - - - -
13.12.2018 16:00:00 5,1 -1,2 16 9 ENE 1015,9 55 0,0
13.12.2018 15:00:00 - - - - - - - -
13.12.2018 14:00:00 - - - - - - - -
13.12.2018 13:00:00 6,2 -1,7 16 9 NE 1016,2 20 -
13.12.2018 12:00:00 - - - - - - - -
13.12.2018 11:00:00 - - - - - - - -
13.12.2018 10:00:00 3,9 -1,3 5 3 NE 1017,9 20 0,0
13.12.2018 09:00:00 - - - - - - - -
13.12.2018 08:00:00 - - - - - - - -
13.12.2018 07:00:00 2,5 -1,0 5 3 NNE 1017,2 - -
13.12.2018 06:00:00 - - - - - - - -
13.12.2018 05:00:00 - - - - - - - -
13.12.2018 04:00:00 1,7 -2,3 5 3 NE 1017,8 - 0,0
13.12.2018 03:00:00 - - - - - - - -
13.12.2018 02:00:00 - - - - - - - -
13.12.2018 01:00:00 -0,6 -5,1 5 3 N 1018,7 - -
13.12.2018 00:00:00 - - - - - - - -
12.12.2018 23:00:00 - - - - - - - -
12.12.2018 22:00:00 -0,9 -4,3 5 3 NNE 1019,4 20 0,0
12.12.2018 21:00:00 - - - - - - - -
12.12.2018 20:00:00 - - - - - - - -
12.12.2018 19:00:00 1,3 -4,4 0 0 N 1019,4 - -
12.12.2018 18:00:00 - - - - - - - -
12.12.2018 17:00:00 - - - - - - - -
12.12.2018 16:00:00 8,8 -7,5 5 3 SSE 1018,9 - 0,0
12.12.2018 15:00:00 - - - - - - - -
12.12.2018 14:00:00 - - - - - - - -
12.12.2018 13:00:00 8,4 -6,7 8 4 W 1019,5 - -
12.12.2018 12:00:00 - - - - - - - -
12.12.2018 11:00:00 - - - - - - - -
12.12.2018 10:00:00 4,3 -4,0 0 0 N 1020,8 30 0,0
12.12.2018 09:00:00 - - - - - - - -
12.12.2018 08:00:00 - - - - - - - -
12.12.2018 07:00:00 -1,1 -5,3 2 1 N 1019,6 - -
12.12.2018 06:00:00 - - - - - - - -
12.12.2018 05:00:00 - - - - - - - -
12.12.2018 04:00:00 -0,4 -5,7 0 0 - 1019,4 - 0,0
12.12.2018 03:00:00 - - - - - - - -
12.12.2018 02:00:00 - - - - - - - -
12.12.2018 01:00:00 0,6 -6,4 2 1 W 1019,3 - -
12.12.2018 00:00:00 - - - - - - - -
11.12.2018 23:00:00 - - - - - - - -
11.12.2018 22:00:00 2,4 -6,0 5 3 NNW 1019,1 55 0,0
11.12.2018 21:00:00 - - - - - - - -
11.12.2018 20:00:00 - - - - - - - -
11.12.2018 19:00:00 6,2 -4,8 8 4 W 1018,8 55 -
11.12.2018 18:00:00 - - - - - - - -
11.12.2018 17:00:00 - - - - - - - -
11.12.2018 16:00:00 11,8 -9,1 5 3 SSW 1017,7 55 0,0
11.12.2018 15:00:00 - - - - - - - -
11.12.2018 14:00:00 - - - - - - - -
11.12.2018 13:00:00 12,0 -5,8 5 3 WSW 1017,7 25 -
11.12.2018 12:00:00 - - - - - - - -
11.12.2018 11:00:00 - - - - - - - -
11.12.2018 10:00:00 5,9 -0,9 4 2 SW 1018,4 30 0,0
11.12.2018 09:00:00 - - - - - - - -
11.12.2018 08:00:00 - - - - - - - -
11.12.2018 07:00:00 1,7 -2,8 8 4 NNE 1017,4 - -
11.12.2018 06:00:00 - - - - - - - -
11.12.2018 05:00:00 - - - - - - - -
11.12.2018 04:00:00 1,9 -3,4 8 4 NNW 1016,8 - 0,0
11.12.2018 03:00:00 - - - - - - - -
11.12.2018 02:00:00 - - - - - - - -
11.12.2018 01:00:00 1,5 -2,0 4 2 NE 1015,9 - -
11.12.2018 00:00:00 - - - - - - - -
10.12.2018 23:00:00 - - - - - - - -
10.12.2018 22:00:00 3,1 0,7 4 2 WNW 1016,4 20 0,0
10.12.2018 21:00:00 - - - - - - - -
10.12.2018 20:00:00 - - - - - - - -
10.12.2018 19:00:00 4,4 4,1 2 1 N 1016,3 8 -
10.12.2018 18:00:00 - - - - - - - -
10.12.2018 17:00:00 - - - - - - - -
10.12.2018 16:00:00 8,3 5,8 4 2 N 1014,8 25 0,0
10.12.2018 15:00:00 - - - - - - - -
10.12.2018 14:00:00 - - - - - - - -
10.12.2018 13:00:00 9,1 5,6 2 1 N 1014,4 15 -
10.12.2018 12:00:00 - - - - - - - -
10.12.2018 11:00:00 - - - - - - - -
10.12.2018 10:00:00 3,3 2,4 4 2 - 1013,9 11 0,0
10.12.2018 09:00:00 - - - - - - - -
10.12.2018 08:00:00 - - - - - - - -
10.12.2018 07:00:00 0,7 0,6 0 0 N 1011,6 - -
10.12.2018 06:00:00 - - - - - - - -
10.12.2018 05:00:00 - - - - - - - -
10.12.2018 04:00:00 0,4 0,4 2 1 N 1010,3 - 0,0
10.12.2018 03:00:00 - - - - - - - -
10.12.2018 02:00:00 - - - - - - - -
10.12.2018 01:00:00 2,1 2,0 4 2 N 1008,8 - -
10.12.2018 00:00:00 - - - - - - - -
09.12.2018 23:00:00 - - - - - - - -
09.12.2018 22:00:00 4,4 4,2 5 3 NE 1007,3 4,0 0,0
09.12.2018 21:00:00 - - - - - - - -
09.12.2018 20:00:00 - - - - - - - -
09.12.2018 19:00:00 6,7 5,4 4 2 SSW 1006,7 20 -
09.12.2018 18:00:00 - - - - - - - -
09.12.2018 17:00:00 - - - - - - - -
09.12.2018 16:00:00 10,7 5,1 9 5 SW 1006,6 20 0,0
09.12.2018 15:00:00 - - - - - - - -
09.12.2018 14:00:00 - - - - - - - -
09.12.2018 13:00:00 12,0 5,8 9 5 N 1006,3 15 -
09.12.2018 12:00:00 - - - - - - - -
09.12.2018 11:00:00 - - - - - - - -
09.12.2018 10:00:00 8,3 6,1 9 5 NNE 1007,4 15 0,0
09.12.2018 09:00:00 - - - - - - - -
09.12.2018 08:00:00 - - - - - - - -
09.12.2018 07:00:00 5,3 4,5 9 5 N 1008,8 - -

tt = temperature
td = dewpoint
ff = wind speed
dd = wind direction
ppp = reduced air pressure
vv = visibility
rr = precipitation

Next stations